RH
12 7 5 5 4 4 3 5 4 5 6 14 31 53 83 42 27 34 55 66 63 56 52 56 56 52 46 38 33 32 30 32 32 31 28 24 25 34 29 38 50 47 48
13 8 5 4 4 5 4 3 3 3 5 7 10 23 44 78 57 33 36 62 80 69 63 66 65 63 53 39 33 32 30 32 34 32 32 29 25 25 38 34 25 35 50
13 8 4 3 4 4 5 4 4 3 3 5 8 13 20 34 53 74 82 39 53 82 76 77 75 74 72 64 53 42 34 30 32 32 33 32 30 28 31 42 48 55 36
14 10 4 3 3 4 5 4 5 4 4 4 4 6 14 19 31 46 55 71 59 41 70 72 68 66 61 59 50 49 54 40 30 29 30 33 33 32 31 34 45 59 64
14 10 5 4 2 3 4 7 7 6 6 6 5 3 4 12 18 23 49 54 44 40 30 37 32 34 39 42 51 57 57 56 45 36 29 26 31 33 34 34 44 46 48
13 9 6 4 4 3 4 5 8 8 6 6 6 6 6 12 14 5 10 38 51 71 77 23 16 19 26 37 43 48 52 54 55 46 39 35 28 30 32 34 38 44 47
12 8 6 5 4 3 3 3 5 10 10 10 11 10 10 8 6 5 4 4 5 11 30 48 52 48 50 55 58 56 52 53 58 66 67 54 39 39 43 44 37 39 42
12 8 6 5 5 4 3 3 4 8 14 14 13 14 11 10 9 8 8 7 6 6 7 7 18 23 12 22 30 41 48 57 59 70 68 74 73 58 52 53 50 46 47
9 7 6 4 4 4 3 4 5 6 11 11 13 14 14 12 11 12 9 8 7 7 7 7 6 7 7 6 6 6 6 8 10 33 67 66 78 81 81 70 61 54 52
9 6 6 5 5 5 5 5 4 7 10 10 12 12 12 16 16 14 10 8 7 7 6 7 7 7 7 6 7 6 7 7 7 6 5 34 70 77 67 71 79 69 60
9 7 5 5 5 5 5 5 7 11 12 12 12 14 14 15 16 18 15 11 8 7 7 7 7 7 7 7 7 6 6 6 6 7 7 6 7 16 28 58 68 78 79
8 6 6 6 6 5 5 6 8 9 12 12 12 13 16 16 19 23 25 17 11 9 8 7 8 8 8 8 8 8 7 6 6 6 7 8 10 11 13 13 24 45 72
9 7 6 6 6 7 8 8 9 10 11 11 12 13 16 20 22 25 31 23 15 12 12 12 12 12 12 10 9 8 8 8 8 8 7 7 8 9 15 9 8 13 44
12 9 8 8 8 9 9 8 8 9 10 12 15 17 21 19 21 24 30 30 19 15 15 14 13 12 12 12 11 11 10 9 9 9 10 9 8 8 8 9 11 11 12
16 12 10 9 10 10 10 11 12 13 14 15 18 20 23 21 23 24 30 30 22 17 16 16 16 14 13 12 11 11 11 12 12 12 11 11 10 9 9 9 9 10 13
21 21 18 14 13 13 15 18 19 19 19 19 20 24 24 27 25 27 34 31 24 19 18 18 16 17 18 16 17 16 13 12 12 12 13 12 12 11 10 10 10 10 14
26 28 27 27 27 27 25 24 23 22 22 24 27 25 29 32 31 31 33 30 30 29 23 21 19 20 23 21 20 20 18 14 13 13 14 14 14 13 12 11 11 11 11
31 31 32 34 34 32 28 27 25 25 26 27 28 32 37 38 38 36 33 33 33 34 30 23 22 25 26 23 24 22 20 17 15 15 15 16 16 16 16 15 13 14 14
34 33 34 38 39 35 30 28 30 31 31 31 35 39 36 38 39 42 39 37 35 39 34 26 26 30 28 27 27 24 21 19 18 17 15 14 14 14 16 17 15 15 17
41 39 38 38 39 36 33 32 30 29 30 33 38 39 43 43 42 45 44 41 41 44 40 31 30 33 32 30 30 26 23 22 20 18 16 15 15 15 16 18 18 17 19
47 43 34 32 34 38 37 36 33 31 31 33 35 40 44 45 44 44 50 49 50 52 46 37 34 38 38 34 33 29 27 25 22 21 20 19 18 18 20 22 22 22 26
38 37 36 34 32 33 34 35 34 33 34 34 37 41 46 47 46 49 54 54 53 52 49 47 43 43 45 39 37 33 31 28 27 26 25 23 21 20 23 26 31 39 44
43 40 40 40 40 40 40 40 41 42 45 47 48 47 47 47 48 55 58 57 57 57 55 57 55 53 50 45 43 40 35 30 29 30 29 26 24 24 28 34 43 55 58
51 51 52 51 49 47 47 48 47 47 48 49 52 53 52 53 59 64 64 66 68 65 65 66 65 59 53 49 48 43 40 34 33 31 30 28 26 29 38 52 63 67 65
41 46 49 52 54 56 58 57 56 57 58 60 59 60 62 64 72 74 76 78 76 74 75 71 65 61 53 51 50 48 45 39 35 32 30 30 36 48 63 74 77 77 76
47 46 44 48 54 58 64 66 67 67 68 68 70 72 78 81 83 87 84 79 74 72 71 70 63 57 52 50 50 52 48 40 37 34 34 39 52 73 81 88 96 97 90
Wind_Speed
16 19 19 20 25 29 30 28 25 21 19 19 16 12 9 13 16 17 17 15 14 13 12 10 8 7 7 7 7 8 7 8 8 7 6 7 8 9 10 10 10 10 10
19 21 21 21 25 30 32 30 31 33 28 22 21 20 15 6 10 14 15 15 14 14 14 14 9 8 7 8 9 10 10 11 11 10 9 8 9 9 11 12 11 11 11
19 20 22 25 24 29 31 32 32 32 32 32 29 24 22 18 10 7 6 15 17 17 16 14 13 13 13 13 14 15 14 14 14 13 13 12 12 10 10 13 14 13 12
17 19 19 21 20 25 29 29 32 32 33 32 31 31 27 25 23 14 6 9 11 20 19 17 18 18 16 14 15 17 17 18 17 17 17 16 15 13 13 12 14 14 13
15 17 17 17 17 19 24 29 31 32 33 35 33 31 29 29 28 25 19 9 9 11 19 19 20 20 21 21 20 20 20 20 20 20 20 20 18 17 16 15 16 15 14
11 13 13 14 15 17 19 25 28 29 30 32 33 33 31 29 30 28 29 23 11 7 9 15 17 16 17 19 22 24 24 23 21 21 22 22 21 19 19 18 18 17 17
9 10 10 12 14 13 14 17 22 26 28 30 32 32 33 33 32 30 28 27 26 23 13 8 7 10 12 14 18 21 23 24 25 24 23 24 25 23 23 24 22 20 19
7 9 9 10 13 13 13 15 18 21 24 26 29 33 33 33 32 32 32 31 28 25 23 18 11 10 13 13 16 15 14 16 20 25 26 25 25 29 25 25 25 26 25
6 6 6 7 10 10 10 11 14 17 19 24 24 24 29 32 32 32 32 31 30 28 28 25 22 19 18 17 16 14 16 17 19 20 20 26 25 25 27 30 28 27 26
4 4 5 4 4 6 9 11 12 15 13 17 22 21 24 22 25 28 29 28 29 30 29 28 26 24 24 25 24 23 21 21 21 23 18 17 22 24 25 28 31 34 32
5 5 7 8 7 8 8 9 9 11 12 16 20 19 23 22 23 23 27 26 24 24 27 30 30 29 30 31 31 31 31 30 30 27 22 18 17 21 25 29 29 31 34
5 6 9 10 10 9 10 12 12 13 12 17 20 22 23 21 21 21 25 24 23 21 20 23 26 29 31 30 31 31 31 31 32 33 33 27 21 19 21 26 31 34 36
7 8 10 13 12 13 12 13 14 15 18 21 21 21 22 19 17 22 26 22 21 20 19 21 23 25 27 28 29 32 33 33 34 34 34 34 35 33 30 25 29 31 35
11 9 12 14 16 17 18 19 19 19 21 22 21 20 20 21 20 23 29 24 21 20 21 22 24 27 30 31 31 32 34 37 36 38 39 39 37 38 38 36 32 32 39
12 13 16 18 20 21 22 20 21 22 22 24 22 21 21 22 22 25 29 25 23 23 23 24 26 27 30 32 33 33 35 37 39 42 43 42 42 42 42 43 43 41 37
17 19 20 21 22 22 22 24 25 25 25 25 23 22 23 23 23 24 31 24 25 26 25 27 27 30 29 29 30 33 35 35 37 40 41 44 47 48 47 47 47 47 44
22 23 23 23 24 25 26 28 28 28 26 24 23 24 24 26 27 28 29 28 27 29 29 30 29 30 31 32 32 35 36 39 40 42 44 46 48 49 50 52 52 51 50
23 24 24 25 27 28 29 29 28 27 26 25 25 25 26 28 31 31 29 32 31 31 33 32 32 32 35 36 39 41 40 41 42 44 45 48 50 53 55 54 55 57 57
25 24 26 27 29 30 31 29 28 28 27 27 26 26 27 31 32 35 34 35 35 35 35 35 34 36 38 40 43 44 42 42 43 45 46 48 50 53 56 57 58 57 57
27 26 27 29 30 31 32 32 33 33 31 30 28 29 33 35 37 37 37 37 39 39 39 38 37 41 42 44 45 45 46 47 47 48 48 48 50 52 55 58 59 59 60
29 28 29 30 32 33 35 36 36 35 34 34 35 37 39 41 42 42 40 40 43 44 43 43 43 46 46 47 49 49 49 51 51 51 50 50 51 55 59 60 61 62 61
29 30 31 31 32 33 35 36 36 36 38 39 41 43 45 46 47 44 43 44 45 46 47 48 49 50 52 51 52 53 54 54 53 55 52 51 52 57 60 61 61 59 58
31 32 33 33 34 35 37 38 40 41 42 43 44 45 48 49 49 46 45 46 48 50 52 53 54 55 55 54 56 56 58 57 55 54 53 53 56 59 61 59 57 56 54
33 34 34 35 36 38 40 43 45 46 47 47 49 51 52 51 48 47 47 49 51 53 54 56 58 57 57 58 60 59 61 59 58 55 55 57 59 60 57 55 53 51 49
37 38 39 40 41 42 44 47 48 50 51 52 54 53 51 49 49 49 50 52 54 56 58 57 58 59 60 62 62 60 61 61 61 57 56 59 60 54 49 48 48 45 42
37 40 42 44 46 48 50 53 54 55 55 55 54 52 50 51 51 51 52 53 56 58 59 60 59 61 63 64 63 61 63 62 62 59 61 61 55 46 45 45 43 40 39
Wind_Direction
72 60 58 62 61 57 58 56 47 44 37 34 26 5 300 260 244 231 224 230 230 226 222 222 229 243 255 258 279 284 289 296 299 301 297 294 298 298 296 297 297 293 278
65 52 55 59 57 55 55 51 54 53 49 43 40 31 20 323 267 250 244 232 232 232 224 223 233 251 269 271 275 281 273 283 285 281 285 285 286 291 292 288 286 285 282
63 51 57 56 57 53 48 47 46 44 46 52 50 41 35 29 6 288 271 245 237 236 241 245 246 253 267 270 271 274 281 274 276 278 273 271 275 280 285 289 289 279 276
59 51 49 57 56 52 49 47 41 39 37 37 41 46 46 38 30 19 319 294 260 240 243 252 263 267 263 261 264 267 272 275 274 275 274 272 270 272 279 284 284 288 272
57 47 45 42 52 54 50 50 43 37 33 30 29 33 39 43 36 35 28 358 296 250 237 244 254 258 265 268 268 267 270 273 271 271 271 274 274 272 272 282 285 289 293
53 55 47 39 37 49 54 50 44 39 36 30 26 23 26 33 34 37 38 33 357 310 296 256 256 264 273 279 277 274 268 266 265 270 272 273 274 276 278 277 281 285 286
45 56 46 33 28 30 42 40 44 41 35 30 24 19 19 19 18 22 26 33 35 39 27 357 305 292 299 300 291 286 282 280 280 275 270 269 264 265 273 278 280 278 280
45 39 35 36 26 18 26 28 36 37 37 31 24 17 13 12 14 13 14 13 18 20 23 33 34 20 9 348 335 330 320 312 302 291 276 278 278 273 272 276 278 281 284
25 18 19 24 15 16 7 12 22 23 23 21 18 22 16 7 6 7 7 8 8 7 10 16 18 15 3 5 353 354 356 348 347 331 304 276 284 284 287 279 273 274 277
344 340 333 340 5 3 355 360 360 8 10 7 9 16 17 10 359 353 358 2 1 360 359 0 4 4 2 360 359 354 353 350 354 349 347 323 292 288 291 289 279 272 272
302 290 293 307 307 325 328 333 346 357 358 356 356 355 1 360 358 355 349 351 355 355 353 353 352 349 351 350 348 344 341 341 343 343 339 333 322 306 300 290 285 280 279
291 287 285 287 289 294 303 312 324 330 333 336 342 345 349 353 354 351 345 340 342 343 341 340 340 339 337 335 335 333 328 328 329 330 331 327 314 298 293 293 291 285 279
294 300 285 282 279 288 295 301 309 317 324 325 324 331 335 339 342 345 343 333 333 336 334 332 331 330 328 324 319 319 318 319 318 317 315 316 316 313 306 300 281 283 281
305 283 284 278 281 284 291 295 303 307 314 315 320 321 325 330 325 329 339 328 318 320 326 328 326 325 326 321 315 311 311 311 311 308 307 308 304 303 303 301 294 282 278
294 281 275 279 282 287 292 298 301 306 306 306 310 313 320 322 320 322 329 323 313 314 317 323 319 320 324 323 318 310 305 305 305 302 302 298 299 298 297 296 296 294 284
283 281 275 276 280 284 289 291 293 292 293 297 303 310 316 316 313 315 321 315 310 311 309 312 314 319 322 320 320 317 309 305 301 297 295 293 295 294 290 290 290 288 286
285 283 282 280 283 285 284 286 288 290 291 298 303 308 312 313 311 308 315 314 311 309 307 307 310 313 317 314 318 312 307 299 296 296 296 295 292 288 286 287 286 284 283
286 285 286 287 285 285 286 288 288 290 293 297 302 305 310 312 311 308 303 307 305 306 304 304 308 311 310 310 312 312 308 299 298 297 295 293 292 291 290 286 281 279 279
283 282 283 285 286 287 286 285 287 290 293 295 297 302 307 311 310 307 301 301 299 303 304 301 302 306 308 307 310 312 305 298 295 294 292 291 291 289 287 284 281 278 277
280 279 280 282 283 283 283 285 286 288 288 288 288 292 302 308 310 306 302 298 298 301 301 299 298 303 304 305 307 309 306 300 296 294 293 292 289 286 285 281 277 275 275
280 280 280 279 279 279 280 282 283 284 286 287 287 287 296 304 307 304 299 298 300 301 300 299 297 301 303 303 306 305 304 300 297 295 296 294 288 283 281 279 277 276 275
280 281 280 282 283 280 281 280 281 283 284 286 287 287 293 300 302 299 296 297 299 299 298 299 298 299 301 301 303 302 303 300 298 297 297 293 287 281 279 279 279 277 273
275 275 276 279 279 278 279 280 281 282 283 285 286 287 292 295 295 294 294 296 298 298 297 298 298 298 299 298 300 299 301 300 301 300 297 292 285 281 280 279 277 275 273
274 275 275 276 277 279 280 280 281 283 284 285 286 289 290 291 290 291 293 295 295 295 295 297 297 295 296 297 297 296 301 302 304 304 295 289 284 282 281 279 276 274 272
283 281 279 278 276 275 274 275 277 278 280 282 284 285 287 287 288 290 292 294 295 295 296 295 295 295 297 298 297 297 302 304 306 305 296 287 284 283 279 275 274 273 272
288 287 287 284 280 279 278 278 279 281 281 282 283 283 284 285 287 290 292 295 295 296 296 296 296 297 297 296 296 298 304 306 310 301 291 288 286 279 273 273 273 273 269